Location: Cardiff
(53.7833°N, 113.6000°W)
Time: 21:03:48
(UTC+00:00)

Oscar 19 - Pass Details

Date: 10 December 2023
Orbit: 771 x 789 km, 98.9° (Epoch: 04 March)

Event Time Altitude Azimuth Distance (km) Brightness Sun altitude
Rises 10:56:49 0° 27° (NNE) 3,279 14.4 -40.2°
Reaches altitude 10° 11:00:06 10° 49° (NE) 2,348 13.7 -39.8°
Maximum altitude 11:03:12 16° 86° (E) 1,965 13.3 -39.3°
Drops below altitude 10° 11:06:19 10° 124° (SE) 2,345 13.5 -38.9°
Sets 11:09:34 0° 146° (SE) 3,271 14.1 -38.4°
